Вернуться в каталог

INTELSAT 17

АктивенСвязьGEO
NORAD 37238·PAYLOAD· XX

Запущен Nov 26, 2010 с Guiana Space Centre

Loading…

TLE

СвежийSource: CelesTrak SupGP

Эпоха: Sep 14, 2026, 00:00 UTC

1 37238C 10065B   26257.00000000  .00000061  00000+0  00000+0 0  2579
2 37238   0.0000 170.8430 0002593   1.9588 246.1768  1.00272045    14

Отслеживайте INTELSAT 17 в реальном времени с AllMySat

Download on the App Store